This is the latest recevied weather packets stored in our database for station/object K7LER. If no packets are shown the sender has not sent any weather packets the latest 10 day(s).
| Time | Temp. | Humidity | Pressure | Rain* | Wind** | Luminosity | Snow |
|---|---|---|---|---|---|---|---|
| 1777246836 | 18.33° C | 31% | 1009 hPa | 0 mm | - | 93 W/m² | - |
| 1777246536 | 18.33° C | 30% | 1009 hPa | 0 mm | - | 139 W/m² | - |
| 1777246250 | 18.33° C | 31% | 1009 hPa | 0 mm | - | 146 W/m² | - |
| 1777245935 | 18.33° C | 30% | 1008.9 hPa | 0 mm | - | 153 W/m² | - |
| 1777245636 | 18.33° C | 30% | 1009 hPa | 0 mm | - | 144 W/m² | - |
| 1777245346 | 18.33° C | 31% | 1008.9 hPa | 0 mm | - | 649 W/m² | - |
| 1777245034 | 18.33° C | 31% | 1009 hPa | 0 mm | - | 206 W/m² | - |
| 1777244734 | 18.89° C | 31% | 1009.1 hPa | 0 mm | - | 174 W/m² | - |
| 1777244445 | 18.89° C | 30% | 1009.1 hPa | 0 mm | - | 171 W/m² | - |
| 1777244134 | 18.89° C | 28% | 1009.1 hPa | 0 mm | - | 185 W/m² | - |
| 1777243835 | 19.44° C | 27% | 1009 hPa | 0 mm | - | 165 W/m² | - |
| 1777243549 | 19.44° C | 27% | 1009 hPa | 0 mm | - | 167 W/m² | - |
| 1777243234 | 19.44° C | 28% | 1009 hPa | 0 mm | - | 506 W/m² | - |
| 1777242936 | 20° C | 28% | 1009 hPa | 0 mm | - | 763 W/m² | - |
| 1777242651 | 20° C | 28% | 1008.9 hPa | 0 mm | - | 749 W/m² | - |
| 1777242334 | 20° C | 27% | 1008.9 hPa | 0 mm | - | 745 W/m² | - |
| 1777242035 | 20° C | 27% | 1008.9 hPa | 0 mm | - | 756 W/m² | - |
| 1777241751 | 20° C | 28% | 1008.9 hPa | 0 mm | - | 761 W/m² | - |
| 1777241434 | 19.44° C | 29% | 1008.9 hPa | 0 mm | - | 768 W/m² | - |
| 1777241134 | 19.44° C | 28% | 1009 hPa | 0 mm | - | 775 W/m² | - |
| 1777240848 | 19.44° C | 29% | 1009.1 hPa | 0 mm | - | 782 W/m² | - |
| 1777240534 | 19.44° C | 31% | 1009.2 hPa | 0 mm | - | 791 W/m² | - |
| 1777240234 | 18.89° C | 30% | 1009.2 hPa | 0 mm | - | 796 W/m² | - |
| 1777239949 | 18.89° C | 30% | 1009.2 hPa | 0 mm | - | 805 W/m² | - |
| 1777239634 | 18.89° C | 31% | 1009.2 hPa | 0 mm | - | 809 W/m² | - |
* Rain latest hour (hover to see other rain measurements)
** Current wind speed in m/s (hover to see current wind gust speed)